Flag for Brazil Weather past 2 weeks in Campo Grande, Mato Grosso Do Sul, Brazil

Now
68 °F

Passing clouds.


Feels Like: 68 °F
Forecast: 67 / 84 °F
Wind: 9 mph from East

Location: Campo Grande Aeroporto


UV Index: 5 (Moderate)

Visibility: N/A


Pressure: 30.01 "Hg

Humidity: 78%

Dew point: 61 °F

Location of Campo GrandeLocation

Historic Weather in Campo Grande

°F

Campo Grande temperature yesterday

Maximum temperature yesterday: 86 °F (at 1:00 PM)
Minimum temperature yesterday: 66 °F (at 5:00 AM)
Average temperature yesterday: 75 °F

Past Weeks' High & Low Weather Summary

 TemperatureHumidityPressure
High90 °F (Apr 5, 2:00 PM)94% (Apr 12, 12:00 PM)30.09 "Hg (Apr 12, 12:00 PM)
Low57 °F (Apr 14, 5:00 AM)38% (Apr 5, 2:00 PM)29.83 "Hg (Apr 9, 3:00 PM)
Average75 °F75%29.97 "Hg
* Reported Apr 5 2:00 AM — Apr 20 2:00 AM, Campo Grande, Weather by CustomWeather, © 2014

Note: Actual official high and low records may vary slightly from our data, if they occured in-between our weather recording intervals... More about our weather records

Advertising

Historic Weather Conditions — Data for Previous 24 hours

 ConditionsComfort  
Time TempWeatherWind HumidityBarometerVisibility
2:00 AM
Apr 20
66 °FPassing clouds.9 mph83%30.01 "HgN/A
1:00 AM66 °FPassing clouds.12 mph83%30.04 "HgN/A
12:00 AM66 °FPassing clouds.12 mph83%30.07 "HgN/A
11:00 PM
Apr 19
66 °FPassing clouds.12 mph83%30.07 "HgN/A
10:00 PM66 °FPassing clouds.15 mph83%30.07 "HgN/A
9:00 PM68 °FPartly cloudy.15 mph83%30.04 "HgN/A
8:00 PM72 °FThundershowers. Passing clouds.15 mph83%30.04 "HgN/A
7:00 PM72 °FThundershowers. Passing clouds.No wind88%29.98 "HgN/A
6:00 PM77 °FThunderstorms. Passing clouds.7 mph79%29.95 "HgN/A
5:00 PM79 °FPassing clouds.3 mph74%29.95 "HgN/A
4:00 PM81 °FScattered clouds.6 mph70%29.95 "HgN/A
3:00 PM79 °FScattered clouds.5 mph70%29.92 "HgN/A
2:00 PM86 °FPartly sunny.10 mph55%29.95 "HgN/A
1:00 PM86 °FPartly sunny.10 mph52%29.98 "HgN/A
12:00 PM84 °FPartly sunny.7 mph58%29.98 "HgN/A
11:00 AM84 °FPartly sunny.7 mph58%30.01 "HgN/A
10:00 AM82 °FScattered clouds.7 mph58%30.04 "HgN/A
9:00 AM82 °FSunny.2 mph66%30.04 "Hg10 mi
8:00 AM77 °FSunny.No wind74%30.04 "Hg10 mi
7:00 AM73 °FSunny.3 mph78%30.01 "Hg10 mi
6:00 AM68 °FSunny.5 mph88%29.98 "Hg10 mi
5:00 AM66 °FSunny.3 mph94%29.95 "Hg10 mi
4:00 AM68 °FClear.6 mph88%29.92 "Hg10 mi
3:00 AM68 °FClear.6 mph88%29.92 "Hg10 mi
Weather by CustomWeather, © 2014

See weather overview